User: anonymous   Login
Location: Caltech
(34.1382°N, 118.1253°W)
Time: 21:15:11
(UTC-07:00)
Language:

HO-68 - Orbit

View from above orbital plane
View from above orbital plane
View from above satellite
View from above satellite

Ground track
Ground track

The orbit data is extracted from the following two-line orbital elements,

1 36122U 09072B   14297.73179212 -.00000074  00000-0 -81193-4 0   627
2 36122 100.2326 345.5711 0006877 301.7936 204.8847 13.16320090233470
Epoch (UTC): 24 October 2014 17:33:46
Eccentricity: 0.0006877
inclination: 100.2326°
perigee height: 1193 km
apogee height: 1204 km
right ascension of ascending node: 345.5711°
argument of perigee: 301.7936°
revolutions per day: 13.16320090
mean anomaly at epoch: 204.8847°
orbit number at epoch: 23347

The dashed part of the orbit path shows where the satellite is in the earth's shadow,  

DLR